TUBIN
1 48900U 21059X   25267.16202061  .00116468  00000-0  88447-3 0  9998
2 48900  97.6764  85.8991 0002838 195.6112 164.5064 15.71964100236717
LEDSAT
1 49069U 21073D   25267.20986788  .00395019  00000-0  15130-2 0  9990
2 49069  97.3747 354.6150 0002390 338.3899  21.7270 15.86463064228169
CUTE
1 49263U 21088D   25267.18693691  .00031593  00000-0  52316-3 0  9999
2 49263  97.4418 346.8571 0006270 188.4007 171.7141 15.52103548220938
TeikyoSat 4
1 49396U 21102B   25266.99571244  .00004134  00000-0  27150-3 0  9999
2 49396  97.4010 301.5629 0013759 124.7313 235.5213 15.08077843212588
Z-Sat
1 49399U 21102E   25267.16869608  .00008131  00000-0  43312-3 0  9995
2 49399  97.3703 305.5086 0019587  94.4364 265.9107 15.15292981213113
KOSEN 1
1 49402U 21102H   25267.12133460  .00014315  00000-0  63203-3 0  9998
2 49402  97.3600 309.7138 0016935  69.2792 291.0257 15.21720933213483
HO-113
1 50466U 21131B   25267.28594101  .00001201  00000-0  38770-3 0  9993
2 50466  98.5081 356.1099 0004537 162.5248 197.6098 14.40938373196811
SNUGLITE 2
1 52899U 22065F   25267.16010332  .00002794  00000-0  54831-3 0  9992
2 52899  98.1847  48.2017 0008440 133.8423 226.3478 14.63475058172076
UmKA 1 (RS40S)
1 57172U 23091G   25267.14656401  .00011514  00000-0  59182-3 0  9996
2 57172  97.5467 321.9900 0012950 331.5358  28.5167 15.16560418123621
CubeBel-2 (EU11S)
1 57175U 23091K   25267.20326569  .00017440  00000-0  78045-3 0  9998
2 57175  97.5463 323.8945 0010579 337.3374  22.7393 15.21301270123753
ENSO
1 58470U 23185J   25265.87349204  .00212868  00000-0  15756-2 0  9993
2 58470  97.3609 345.3295 0002510  57.5685 302.5821 15.72293598101470
SONATE-2
1 59112U 24043Q   25267.10814745  .00039446  00000-0  10001-2 0  9993
2 59112  97.5273  40.7668 0010859  94.2426 266.0061 15.39536289 86707
MO-122
1 60209U 24125G   25267.15572901  .00035940  00000-0  89179-3 0  9991
2 60209  97.2653 117.7858 0018646 111.4229 248.9009 15.40092218 68337
GRBBeta
1 60237U 24128C   25267.17911822  .00009509  00000-0  68272-3 0  9999
2 60237  61.9913  67.6373 0056804  80.3685 280.3817 15.03578061 66225
Curium One
1 60242U 24128H   25267.15171371  .00016734  00000-0  10903-2 0  9995
2 60242  61.9808  64.2925 0056603  77.0552 283.6854 15.06762571 66280
ROBUSTA-3A
1 60243U 24128J   25266.65868230  .00015672  00000-0  10391-2 0  9998
2 60243  61.9881  67.2275 0056198  74.5030 286.2259 15.06181581 66199
CatSat
1 60246U 24125J   25267.11646091  .00038419  00000-0  11436-2 0  9994
2 60246  97.2470 115.6967 0041030  74.8577 285.7199 15.33760008 66297
HYPERVIEW-1G (RS66S)
1 61772U 24199AP  25267.27982520  .00041472  00000-0  10284-2 0  9990
2 61772  97.3341 136.1356 0012848 159.3489 200.8280 15.40177234 93353
AO-123
1 61781U 24199AY  25267.31937289  .00013379  00000-0  46396-3 0  9996
2 61781  97.3365 133.7166 0015449 172.0907 188.0580 15.29816886 93190
ZIMSAT 2
1 61783U 24199BA  25267.30245721  .00092902  00000-0  16432-2 0  9996
2 61783  97.3289 137.8570 0012143 149.2368 210.9598 15.49910337 96629
HADES-R (SO-124)
1 62690U 25009CK  25267.27974874  .00091271  00000-0  24138-2 0  9999
2 62690  97.4005 348.2004 0002126 104.7494 255.3986 15.38051037 38496
HYDRA-T
1 62692U 25009CM  25266.98030718  .00109078  00000-0  28366-2 0  9990
2 62692  97.4014 347.9906 0001642  98.1264 262.0167 15.38495174 38454
JINJUSat 1B
1 63210U 25052A   25267.18845402  .00023959  00000-0  10166-2 0  9994
2 63210  97.4250 160.0344 0002696 343.6916  16.4233 15.23093421 29464
NUSHSAT 1
1 63211U 25052B   25267.22450114  .00025820  00000-0  10781-2 0  9994
2 63211  97.4239 160.1125 0002866 352.8906   7.2290 15.23621653 29476
TEVEL2-4
1 63213U 25052D   25267.26261764  .00025397  00000-0  10741-2 0  9996
2 63213  97.4156 159.8538 0003047  18.6888 341.4460 15.23190890 29473
TEVEL2-5
1 63214U 25052E   25267.26517299  .00025146  00000-0  10648-2 0  9992
2 63214  97.4155 159.8511 0003061  19.0094 341.1257 15.23151274 29478
TEVEL2-6
1 63215U 25052F   25267.27012296  .00024914  00000-0  10563-2 0  9999
2 63215  97.4155 159.8476 0003118  18.2038 341.9310 15.23110462 29473
TEVEL2-1
1 63217U 25052H   25266.18058536  .00027481  00000-0  11752-2 0  9990
2 63217  97.4135 158.6458 0004046  29.1921 330.9541 15.22795081 29304
TEVEL2-3
1 63218U 25052J   25266.96911112  .00027604  00000-0  11786-2 0  9999
2 63218  97.4136 159.4267 0003975  28.7525 331.3930 15.22846330 29422
TEVEL2-2
1 63219U 25052K   25266.96983436  .00027392  00000-0  11701-2 0  9999
2 63219  97.4135 159.4245 0003917  28.4835 331.6615 15.22833674 29425
TEVEL2-9
1 63237U 25052AD  25267.12260717  .00026331  00000-0  11682-2 0  9998
2 63237  97.4197 159.3829 0008225  19.5986 340.5565 15.21525963 29426
TEVEL2-7
1 63238U 25052AE  25267.26167102  .00023853  00000-0  10617-2 0  9991
2 63238  97.4196 159.5069 0008293  19.0035 341.1509 15.21436626 29443
TEVEL2-8
1 63239U 25052AF  25267.26585381  .00023735  00000-0  10573-2 0  9995
2 63239  97.4195 159.4995 0008330  19.6780 340.4776 15.21407303 29443
HYDRA-W
1 63490U 25052BL  25267.24230573  .00061458  00000-0  21334-2 0  9993
2 63490  97.4141 160.6120 0010706  15.0778 345.0780 15.29497195 29525
HADES-ICM (SO-125)
1 63492U 25052BN  25266.64438626  .00063013  00000-0  22500-2 0  9992
2 63492  97.4152 159.8990 0011181  19.3064 340.8597 15.28561245 29422
